Date String (YYYY-MM-DD hh:mm:ss) UTC,Instrument flags,Ambient pressure (hPa),Sample flow (lpm),Bypass flow (lpm),Sample temperature (°C),Ambient temperature (°C),ASC tube jacket temperature (°C),LED temperature (°C),Box temperature (°C),Sample RH (%),Span deviation,Mass concentration (μg/m³),Mass concentration (μg/m³),Mass concentration (μg/m³)
DateTimeUTC,F1_M11,P_M11,Q1_M11,Q2_M11,T1_M11,T2_M11,T3_M11,T4_M11,T5_M11,U1_M11,ZSPAN_M11,X0_M11,X2_M11,X1_M11
2021-12-28 18:00:00,,0810.1,4.99,0.00,21.9,21.3,00.0,31.1,23.6,07.3,0000.0,0010.26,0002.61,0000.98
2021-12-28 18:01:00,,0810.1,5.01,0.00,22.0,21.9,00.0,31.1,23.8,07.3,0000.0,0010.18,0002.58,0000.97
2021-12-28 18:02:00,,0810.1,5.00,0.00,22.1,22.8,00.0,31.1,24.1,07.2,0000.0,0009.85,0002.63,0000.97
2021-12-28 18:03:00,,0810.2,5.00,0.00,22.3,23.4,00.0,31.2,24.3,07.2,0000.0,0009.37,0002.68,0000.97
2021-12-28 18:04:00,,0810.2,5.00,0.00,22.4,23.2,00.0,31.2,24.3,07.1,0000.0,0009.42,0002.67,0000.98
2021-12-28 18:05:00,,0810.2,5.01,0.00,22.4,22.9,00.0,31.2,24.3,07.2,0000.0,0010.15,0002.74,0000.99
2021-12-28 18:06:00,,0810.2,5.00,0.00,22.4,22.7,00.0,31.2,24.2,07.1,0000.0,0009.54,0002.66,0001.00
2021-12-28 18:07:00,,0810.1,4.99,0.00,22.4,22.5,00.0,31.2,24.1,07.1,0000.0,0008.99,0002.60,0001.00
2021-12-28 18:08:00,,0810.1,5.00,0.00,22.4,22.3,00.0,31.3,24.1,07.1,0000.0,0009.35,0002.56,0001.01
2021-12-28 18:09:00,,0810.1,4.99,0.00,22.4,22.1,00.0,31.3,24.1,07.1,0000.0,0010.09,0002.63,0001.03
2021-12-28 18:10:00,,0810.1,5.02,0.00,22.3,22.0,00.0,31.3,24.0,07.0,0000.0,0012.59,0002.59,0001.02
2021-12-28 18:11:00,,0810.1,5.00,0.00,22.3,21.9,00.0,31.3,24.0,07.0,0000.0,0012.90,0002.69,0001.02
2021-12-28 18:12:00,,0810.1,5.01,0.00,22.3,21.8,00.0,31.3,23.9,07.0,0000.0,0013.03,0002.81,0001.02
2021-12-28 18:13:00,,0810.1,5.00,0.00,22.3,21.8,00.0,31.3,23.9,07.0,0000.0,0013.35,0002.82,0001.01
2021-12-28 18:14:00,,0810.2,5.00,0.00,22.3,21.8,00.0,31.3,23.9,07.0,0000.0,0013.23,0002.79,0001.01
2021-12-28 18:15:00,,0810.2,5.01,0.00,22.2,21.6,00.0,31.3,23.9,07.0,0000.0,0013.35,0002.89,0001.00
2021-12-28 18:16:00,,0810.2,5.00,0.00,22.2,21.5,00.0,31.3,23.8,07.0,0000.0,0012.82,0002.86,0000.98
2021-12-28 18:17:00,,0810.2,4.99,0.00,22.2,21.5,00.0,31.3,23.7,07.0,0000.0,0013.01,0002.87,0000.96
2021-12-28 18:18:00,,0810.2,5.01,0.00,22.1,21.5,00.0,31.2,23.8,07.0,0000.0,0013.67,0002.86,0000.96
2021-12-28 18:19:00,,0810.3,5.00,0.00,22.1,21.5,00.0,31.2,23.7,06.9,0000.0,0013.66,0002.87,0000.95
2021-12-28 18:20:00,,0810.3,4.99,0.00,22.1,21.5,00.0,31.2,23.7,07.0,0000.0,0013.95,0002.92,0000.93
2021-12-28 18:21:00,,0810.2,5.00,0.00,22.1,21.5,00.0,31.2,23.7,06.9,0000.0,0011.85,0003.00,0000.92
2021-12-28 18:22:00,,0810.1,5.00,0.00,22.1,21.5,00.0,31.2,23.8,06.9,0000.0,0013.26,0003.04,0000.91
2021-12-28 18:23:00,,0810.1,5.00,0.00,22.1,21.5,00.0,31.2,23.8,06.8,0000.0,0014.59,0002.99,0000.90
2021-12-28 18:24:00,,0810.2,5.00,0.00,22.1,21.7,00.0,31.2,23.8,06.8,0000.0,0014.50,0003.06,0000.90
2021-12-28 18:25:00,,0810.2,5.01,0.00,22.2,22.5,00.0,31.2,24.1,06.8,0000.0,0015.42,0003.12,0000.89
2021-12-28 18:26:00,,0810.2,4.99,0.00,22.4,23.3,00.0,31.3,24.4,06.7,0000.0,0015.66,0003.01,0000.88
2021-12-28 18:27:00,,0810.2,5.00,0.00,22.5,23.4,00.0,31.3,24.5,06.7,0000.0,0016.71,0002.97,0000.88
2021-12-28 18:28:00,,0810.2,5.01,0.00,22.6,23.1,00.0,31.4,24.4,06.7,0000.0,0017.22,0002.95,0000.87
2021-12-28 18:29:00,,0810.1,4.99,0.00,22.6,22.8,00.0,31.4,24.3,06.7,0000.0,0016.81,0002.98,0000.86
2021-12-28 18:30:00,,0810.1,5.00,0.00,22.5,22.6,00.0,31.4,24.2,06.7,0000.0,0017.47,0002.99,0000.86
2021-12-28 18:31:00,,0810.1,5.00,0.00,22.5,22.4,00.0,31.4,24.1,06.7,0000.0,0017.62,0002.90,0000.85
2021-12-28 18:32:00,,0810.1,4.99,0.00,22.4,22.2,00.0,31.4,24.1,06.6,0000.0,0017.38,0002.85,0000.85
2021-12-28 18:33:00,,0810.1,4.99,0.00,22.4,22.1,00.0,31.4,24.0,06.7,0000.0,0016.35,0002.79,0000.83
2021-12-28 18:34:00,,0810.2,5.02,0.00,22.4,21.9,00.0,31.4,24.0,06.7,0000.0,0015.72,0002.70,0000.82
2021-12-28 18:35:00,,0810.1,5.02,0.00,22.3,21.9,00.0,31.4,23.9,06.7,0000.0,0016.20,0002.53,0000.80
2021-12-28 18:36:00,,0810.1,4.99,0.00,22.3,21.8,00.0,31.4,23.9,06.7,0000.0,0015.36,0002.47,0000.80
2021-12-28 18:37:00,,0810.1,5.00,0.00,22.3,21.8,00.0,31.4,23.9,06.8,0000.0,0014.92,0002.51,0000.80
2021-12-28 18:38:00,,0810.0,5.01,0.00,22.3,21.8,00.0,31.4,23.9,06.7,0000.0,0014.06,0002.48,0000.80
2021-12-28 18:39:00,,0809.9,4.99,0.00,22.3,21.7,00.0,31.4,23.9,06.7,0000.0,0013.87,0002.47,0000.80
2021-12-28 18:40:00,,0809.9,4.99,0.00,22.3,21.7,00.0,31.4,23.9,06.7,0000.0,0014.55,0002.53,0000.80
2021-12-28 18:41:00,,0809.9,4.99,0.00,22.2,21.6,00.0,31.3,23.8,06.7,0000.0,0013.42,0002.53,0000.79
2021-12-28 18:42:00,,0809.9,5.01,0.00,22.2,21.5,00.0,31.3,23.8,06.8,0000.0,0012.46,0002.48,0000.78
2021-12-28 18:43:00,,0810.0,5.00,0.00,22.1,21.4,00.0,31.3,23.7,06.8,0000.0,0013.82,0002.42,0000.76
2021-12-28 18:44:00,,0810.1,4.99,0.00,22.1,21.4,00.0,31.3,23.7,06.8,0000.0,0013.81,0002.34,0000.75
2021-12-28 18:45:00,,0810.1,5.01,0.00,22.1,21.5,00.0,31.3,23.7,06.8,0000.0,0013.49,0002.36,0000.74
2021-12-28 18:46:00,,0810.0,5.01,0.00,22.1,21.4,00.0,31.3,23.7,06.7,0000.0,0013.12,0002.44,0000.73
2021-12-28 18:47:00,,0809.9,4.99,0.00,22.1,21.3,00.0,31.2,23.7,06.7,0000.0,0013.32,0002.45,0000.72
2021-12-28 18:48:00,,0809.9,5.01,0.00,22.0,21.3,00.0,31.2,23.6,06.7,0000.0,0013.58,0002.42,0000.72
2021-12-28 18:49:00,,0809.9,5.00,0.00,22.0,21.2,00.0,31.2,23.6,06.8,0000.0,0013.01,0002.50,0000.71
2021-12-28 18:50:00,,0809.9,4.99,0.00,22.0,21.2,00.0,31.2,23.5,06.8,0000.0,0012.81,0002.53,0000.69
2021-12-28 18:51:00,,0809.9,5.01,0.00,22.0,21.2,00.0,31.2,23.5,06.8,0000.0,0012.16,0002.44,0000.69
2021-12-28 18:52:00,,0809.9,5.00,0.00,21.9,21.1,00.0,31.1,23.5,06.8,0000.0,0013.23,0002.45,0000.70
2021-12-28 18:53:00,,0809.9,5.01,0.00,21.9,21.1,00.0,31.1,23.4,06.8,0000.0,0014.27,0002.53,0000.70
2021-12-28 18:54:00,,0809.9,5.00,0.00,21.9,21.2,00.0,31.1,23.4,06.9,0000.0,0013.35,0002.58,0000.71
2021-12-28 18:55:00,,0809.8,5.01,0.00,21.9,21.2,00.0,31.1,23.5,06.9,0000.0,0013.02,0002.68,0000.72
2021-12-28 18:56:00,,0809.9,5.01,0.00,21.9,21.2,00.0,31.1,23.5,06.8,0000.0,0012.96,0002.80,0000.75
2021-12-28 18:57:00,,0809.9,4.98,0.00,21.9,21.2,00.0,31.0,23.4,06.8,0000.0,0013.44,0002.87,0000.76
2021-12-28 18:58:00,,0809.9,5.02,0.00,21.9,21.2,00.0,31.0,23.4,06.8,0000.0,0013.42,0002.80,0000.76
2021-12-28 18:59:00,,0809.9,4.98,0.00,21.8,21.1,00.0,31.0,23.4,06.8,0000.0,0014.46,0002.86,0000.76
